INTELSAT 701 1 22871U 93066A 23340.85017516 .00000118 00000-0 00000+0 0 9998 2 22871 8.8817 53.8777 0001572 94.8686 287.6826 0.99317493109876 INTELSAT 26 (JCSAT 4) 1 24732U 97007A 23340.97547759 -.00000221 00000-0 00000+0 0 9991 2 24732 10.8643 35.7573 0011162 249.8299 105.6725 0.98908787 97914 GALAXY 25 (TELSTAR 5) 1 24812U 97026A 23340.51175272 .00000081 00000-0 00000-0 0 9992 2 24812 5.0453 78.1640 0002843 119.2812 308.2541 0.99030835 97076 INTELSAT 5 (PAS 5) 1 24916U 97046A 23340.57827294 -.00000044 00000-0 00000-0 0 9993 2 24916 8.3820 57.0537 0007183 182.2584 210.1383 1.00269008 96369 INTELSAT 805 1 25371U 98037A 23340.91770483 .00000102 00000-0 00000-0 0 9999 2 25371 5.5682 76.0174 0016944 138.0943 226.3369 0.99476265 93183 AFRISTAR 1 25515U 98063A 23340.49808144 .00000081 00000-0 00000-0 0 9993 2 25515 8.1897 57.4716 0003597 147.7440 280.2883 0.99005778 91415 INTELSAT 8 (PAS 8) 1 25522U 98065A 23340.60466348 -.00000172 00000-0 00000-0 0 9994 2 25522 6.7554 72.8475 0276948 279.0967 103.0152 0.95186968 36029 GALAXY 11 1 26038U 99071A 23340.63382809 -.00000032 00000-0 00000-0 0 9992 2 26038 4.3859 81.5879 0000508 180.8414 207.1854 1.00272542 87822 SIRIUS 1 1 26390U 00035A 23339.65923823 .00000107 00000-0 00000-0 0 9994 2 26390 59.3620 178.4115 0002113 61.8135 294.7009 1.57877466 57267 INTELSAT 9 (PAS 9) 1 26451U 00043A 23340.35740233 -.00000269 00000-0 00000-0 0 9992 2 26451 8.3656 57.2486 0004509 204.8321 251.4644 1.00269838 34884 INTELSAT 12 (PAS 12) 1 26590U 00068A 23340.56207399 -.00000116 00000-0 00000-0 0 9998 2 26590 6.0247 74.4437 0013100 185.8328 200.8422 0.99031520 42353 INTELSAT 1R (PAS 1R) 1 26608U 00072A 23340.67637758 -.00000117 00000-0 00000-0 0 9992 2 26608 5.7572 74.7888 0003048 233.3472 167.6889 1.00271434 32069 INTELSAT 10 (PAS 10) 1 26766U 01019A 23340.55682448 .00000054 00000-0 00000-0 0 9991 2 26766 6.8585 68.5155 0004505 190.1830 194.6323 1.00272099 36363 INTELSAT 901 1 26824U 01024A 23340.76219348 -.00000178 00000-0 00000-0 0 9998 2 26824 0.0180 342.3560 0000582 290.4749 49.3717 1.00271766 13720 INTELSAT 902 1 26900U 01039A 23340.82928971 -.00000259 00000-0 00000-0 0 9995 2 26900 3.7666 82.8971 0004573 192.5223 48.4050 1.00271632 81434 DIRECTV 4S 1 26985U 01052A 23340.89116289 .00000027 00000-0 00000-0 0 9993 2 26985 3.8850 82.5930 0002724 69.8628 144.5586 0.99260988 41905 INTELSAT 904 1 27380U 02007A 23340.69013862 -.00000191 00000-0 00000-0 0 9998 2 27380 4.5885 80.0379 0003163 187.2425 26.8903 1.00272276 42507 INTELSAT 903 1 27403U 02016A 23340.72233704 -.00000240 00000-0 00000-0 0 9992 2 27403 5.3772 76.8296 0000482 353.9132 37.2859 0.99022775 36251 DIRECTV 5 (TEMPO 1) 1 27426U 02023A 23340.88898733 -.00000032 00000-0 00000-0 0 9990 2 27426 2.5013 86.7820 0003389 178.0798 20.4666 1.00271641 78863 INTELSAT 905 1 27438U 02027A 23340.69109588 -.00000162 00000-0 00000-0 0 9993 2 27438 4.4128 80.7133 0002635 172.9804 45.8347 1.00271141 42109 GALAXY 3C 1 27445U 02030A 23340.89203312 -.00000128 00000-0 00000-0 0 9999 2 27445 1.3523 89.1143 0001526 186.0831 26.5234 1.00272230 37239 INTELSAT 906 1 27513U 02041A 23340.85200264 .00000038 00000-0 00000-0 0 9995 2 27513 3.4400 84.1925 0006091 178.2525 183.7866 1.00271631 77774 INTELSAT 907 1 27683U 03007A 23341.05396729 -.00000063 00000-0 00000+0 0 9999 2 27683 3.3551 83.1199 0006375 62.2193 138.1303 0.99162033 75981 GALAXY 12 1 27715U 03013B 23341.02757899 -.00000011 00000-0 00000+0 0 9991 2 27715 4.6236 79.7505 0001705 248.7677 318.2929 0.98986177 75733 GALAXY 23 (TELSTAR 13) 1 27854U 03034A 23340.88681177 .00000036 00000-0 00000-0 0 9993 2 27854 0.8047 91.6903 0002699 161.0956 20.9977 1.00272186 74483 HORIZONS 1 (GALAXY 13) 1 27954U 03044A 23341.09592738 .00000157 00000-0 00000+0 0 9996 2 27954 0.0156 82.6597 0000790 298.7516 298.7477 1.00272285 73890 DIRECTV 7S 1 28238U 04016A 23340.89229419 .00000021 00000-0 00000-0 0 9993 2 28238 2.7254 86.0174 0007708 97.7310 119.6183 0.98915700 71668 INTELSAT 1002 1 28358U 04022A 23340.91065598 .00000013 00000-0 00000-0 0 9993 2 28358 0.0190 315.6617 0000914 328.1463 118.4863 1.00271756 71286 XM-3 1 28626U 05008A 23340.82232789 -.00000182 00000-0 00000-0 0 9992 2 28626 0.0414 151.3519 0000821 43.5506 91.3979 1.00273292 33363 SPACEWAY 1 1 28644U 05015A 23340.95695211 .00000037 00000-0 00000+0 0 9994 2 28644 4.3117 81.3919 0004752 112.2179 97.9505 0.98489888 68005 DIRECTV 8 1 28659U 05019A 23340.88715985 .00000025 00000-0 00000-0 0 9995 2 28659 0.0182 318.3838 0002780 298.8990 18.4698 1.00272113 67814 GALAXY 28 (IA 8) 1 28702U 05022A 23340.89316442 -.00000161 00000-0 00000-0 0 9996 2 28702 0.9090 90.0947 0006794 178.2333 39.6224 1.00271914 42727 GALAXY 14 1 28790U 05030A 23340.91744376 .00000179 00000-0 00000-0 0 9994 2 28790 2.6313 86.1136 0001511 181.1247 171.4023 1.00274391 67042 GALAXY 15 1 28884U 05041A 23341.10567392 .00000050 00000-0 00000+0 0 9990 2 28884 1.1269 85.2473 0014861 118.7464 168.8409 0.98938247 66324 SPACEWAY 2 1 28903U 05046B 23341.17837705 .00000127 00000-0 00000+0 0 9997 2 28903 3.1511 82.5726 0000618 47.5201 230.9466 1.00271605 66249 GALAXY 16 1 29236U 06023A 23341.10610904 -.00000103 00000-0 00000+0 0 9991 2 29236 0.0273 126.8532 0002367 113.0838 134.9104 1.00274287 64019 DIRECTV 9S 1 29494U 06043A 23340.89072778 -.00000089 00000-0 00000-0 0 9999 2 29494 0.0361 70.5228 0003137 190.1514 34.2119 1.00272470 42121 XM-4 1 29520U 06049A 23340.85400417 .00000078 00000-0 00000-0 0 9993 2 29520 0.4240 95.5205 0003028 224.0447 137.5021 0.98811629 42225 GALAXY 17 1 31307U 07016B 23340.89394763 -.00000182 00000-0 00000-0 0 9991 2 31307 0.6202 91.7541 0004394 189.5390 30.9683 1.00271346 60546 DIRECTV 10 1 31862U 07032A 23340.89046671 -.00000078 00000-0 00000-0 0 9991 2 31862 0.0224 107.2660 0000659 115.2020 70.7015 1.00269031 36330 SPACEWAY 3 1 32018U 07036A 23340.97121348 -.00000261 00000-0 00000+0 0 9996 2 32018 1.6073 87.6801 0000134 266.8927 13.8008 1.00270883 59868 INTELSAT 11 (PAS 11) 1 32253U 07044B 23340.90230181 -.00000244 00000-0 00000-0 0 9997 2 32253 1.1625 90.1005 0004195 180.4388 86.7194 1.00272994 59236 HORIZONS 2 1 32388U 07063B 23340.89621021 -.00000229 00000-0 00000-0 0 9995 2 32388 0.2097 91.0260 0002101 172.5270 60.7079 1.00270336 58554 DIRECTV 11 1 32729U 08013A 23340.44173111 -.00000103 00000-0 00000-0 0 9994 2 32729 0.0418 128.4721 0001065 12.4247 353.9287 1.00271224 36336 GALAXY 18 1 32951U 08024A 23340.88637664 .00000049 00000-0 00000-0 0 9997 2 32951 0.0177 359.5753 0002964 255.2346 16.6955 1.00272856 36598 INTELSAT 25(PROTOSTAR 1) 1 33153U 08034A 23341.16571161 -.00000199 00000-0 00000+0 0 9990 2 33153 0.3182 90.8574 0003036 171.0497 201.9495 1.00272857 56389 GALAXY 19 1 33376U 08045A 23340.89159802 -.00000115 00000-0 00000-0 0 9991 2 33376 0.0407 95.8976 0002953 162.4599 41.0404 1.00271956 55648 SIRIUS FM-5 1 35493U 09034A 23340.89377358 -.00000176 00000-0 00000-0 0 9997 2 35493 0.0195 325.8671 0001011 224.3677 120.8076 1.00269847 37389 INTELSAT 14 1 36097U 09064A 23340.90195372 -.00000249 00000-0 00000-0 0 9998 2 36097 0.0160 304.9176 0002293 309.1669 101.0640 1.00272077 51345 INTELSAT 15 1 36106U 09067A 23340.85617973 -.00000161 00000-0 00000-0 0 9995 2 36106 0.0182 334.8169 0001450 283.0198 210.9059 1.00269238 31971 DIRECTV 12 1 36131U 09075A 23340.96208646 -.00000079 00000-0 00000+0 0 9994 2 36131 0.0100 138.9854 0000658 355.5715 184.5489 1.00271318 51137 INTELSAT 16 1 36397U 10006A 23340.75235991 -.00000221 00000-0 00000-0 0 9994 2 36397 0.0090 7.7606 0002109 251.7569 10.4131 1.00270526 50392 XM-5 1 37185U 10053A 23340.88794306 .00000001 00000-0 00000-0 0 9991 2 37185 0.0155 292.7280 0000513 222.0348 125.1169 1.00269794 48226 INTELSAT 17 1 37238U 10065B 23341.13891663 .00000023 00000-0 00000+0 0 9999 2 37238 0.0182 317.6567 0002545 300.5559 293.4595 1.00270773 47661 INTELSAT NEW DAWN 1 37392U 11016A 23340.91744376 .00000179 00000-0 00000-0 0 9993 2 37392 0.0135 334.0167 0001415 305.3537 159.1427 1.00271026 44024 INTELSAT 18 1 37834U 11056A 23340.87506368 .00000077 00000-0 00000-0 0 9997 2 37834 0.0193 320.3571 0001910 296.4612 313.6205 1.00272671 44556 INTELSAT 22 1 38098U 12011A 23341.14004793 -.00000035 00000-0 00000+0 0 9992 2 38098 0.0042 6.6490 0003195 244.6986 306.8408 1.00273722 42793 INTELSAT 19 1 38356U 12030A 23340.87227896 -.00000033 00000-0 00000-0 0 9999 2 38356 0.0130 13.2949 0002970 240.1976 301.9273 1.00271866 41186 INTELSAT 20 1 38740U 12043A 23340.44980089 -.00000002 00000-0 00000-0 0 9999 2 38740 0.0116 98.5296 0002028 88.6264 118.2458 1.00270603 41482 INTELSAT 21 1 38749U 12045A 23340.89934303 -.00000261 00000-0 00000-0 0 9994 2 38749 0.0197 273.8600 0002652 334.8135 92.5291 1.00272734 41265 INTELSAT 23 1 38867U 12057A 23340.43055347 -.00000262 00000-0 00000-0 0 9991 2 38867 0.0177 243.8507 0000585 74.7075 218.4218 1.00267528 40681 SIRIUS FM-6 1 39360U 13058A 23340.88776900 .00000008 00000-0 00000-0 0 9993 2 39360 0.0134 329.3390 0000475 190.1065 119.3934 1.00268841 36805 INTELSAT 30 1 40271U 14062A 23340.89194610 -.00000127 00000-0 00000-0 0 9998 2 40271 0.0110 0.9633 0001174 9.8972 290.5995 1.00270392 33332 INTELSAT 34 1 40874U 15039A 23340.89986517 -.00000261 00000-0 00000-0 0 9996 2 40874 0.0201 325.0484 0000720 1.6231 17.2264 1.00269976 30360 INTELSAT 29E 1 41308U 16004A 23341.18114222 -.00000229 00000-0 00000+0 0 9994 2 41308 4.1655 81.2835 0005767 14.5640 323.3029 1.00628461 28966 INTELSAT 31 1 41581U 16035A 23341.10579140 -.00000126 00000-0 00000+0 0 9993 2 41581 0.0117 343.6870 0001847 190.1104 204.8412 1.00268323 27439 INTELSAT 36 1 41747U 16053A 23340.85287287 -.00000001 00000-0 00000-0 0 9999 2 41747 0.0113 348.5321 0002093 29.2146 73.1682 1.00271310 26699 INTELSAT 33E 1 41748U 16053B 23341.13769831 .00000073 00000-0 00000+0 0 9999 2 41748 0.0129 311.4113 0002037 307.4474 286.3790 1.00273223 26961 INTELSAT 32E 1 41945U 17007B 23340.90230181 -.00000245 00000-0 00000-0 0 9996 2 41945 0.0156 13.1034 0000358 125.8921 218.0834 1.00269607 24972 INTELSAT 35E 1 42818U 17041A 23340.90404226 -.00000214 00000-0 00000-0 0 9993 2 42818 0.0147 294.0572 0001796 328.6649 103.6756 1.00272916 23558 INTELSAT 37E 1 42950U 17059A 23340.90726209 -.00000117 00000-0 00000-0 0 9999 2 42950 0.0179 345.7784 0002763 267.0408 131.2254 1.00270548 22809